Brenham, TX

4:32 PM CST on February 21, 2017 (GMT -0600)
Brenham

Weather History for K11R - February, 2013

Change the Weather History Date:

Sunday, February 17, 2013

  Actual Average (KCLL) Record (KCLL)
Temperature  
Mean Temperature 58 °F -  
Max Temperature 71 °F 64 °F 89 °F (1982)
Min Temperature 44 °F 44 °F 16 °F (1936)
Degree Days  
Heating Degree Days 8    
Growing Degree Days 8 (Base 50)    
Moisture  
Dew Point 39 °F    
Average Humidity 52    
Maximum Humidity 76    
Minimum Humidity 23    
Precipitation  
Precipitation 0.00 in - - ()
Sea Level Pressure  
Sea Level Pressure 30.15 in    
Wind  
Wind Speed 8 mph (South)    
Max Wind Speed 23 mph    
Max Gust Speed 29 mph    
Visibility 10 miles    
Events      
Averages and records for this station are not official NWS values.
T = Trace of Precipitation, MM = Missing Value Source: NWS Daily Summary

Daily Weather History Graph

Daily Weather History Graph

Search for Another Location

Airport or City:

Trip Planner

Search our weather history database for the weather conditions in past years. The results will help you decide how hot, cold, wet, or windy it might be!

Date:

Astronomy

Feb. 17, 2013 Rise Set
Actual Time 7:03 AM CST 6:15 PM CST
Civil Twilight 6:39 AM CST 6:40 PM CST
Nautical Twilight 6:11 AM CST 7:08 PM CST
Astronomical Twilight 5:43 AM CST 7:36 PM CST
Moon 11:30 AM CST (2/17) 12:39 AM CST (2/17)
Length of Visible Light 12h 01m
Length of Day
11h 12m
Waxing Crescent, 49% of the Moon is Illuminated
Feb 17
Waxing Crescent
Feb 17
First Quarter
Feb 25
Full
Mar 4
Last Quarter
Mar 11
New

Hourly Weather History & Observations

Time (CST) Temp. Windchill Dew Point Humidity Pressure Visibility Wind Dir Wind Speed Gust Speed Precip Events Conditions
12:15 AM 48.2 °F - 32.0 °F 54% 30.25 in 10.0 mi SSE 3.5 mph - N/A   Clear
12:35 AM 46.4 °F 45.2 °F 32.0 °F 57% 30.25 in 10.0 mi South 3.5 mph - N/A   Clear
12:55 AM 46.4 °F 45.2 °F 32.0 °F 57% 30.24 in 10.0 mi South 3.5 mph - N/A   Clear
1:15 AM 46.4 °F 45.2 °F 32.0 °F 57% 30.24 in 10.0 mi South 3.5 mph - N/A   Clear
1:35 AM 46.4 °F 44.3 °F 32.0 °F 57% 30.24 in 10.0 mi SSW 4.6 mph - N/A   Clear
1:55 AM 46.4 °F 44.3 °F 33.8 °F 62% 30.24 in 10.0 mi SSW 4.6 mph - N/A   Clear
2:15 AM 46.4 °F 43.5 °F 33.8 °F 62% 30.23 in 10.0 mi SSW 5.8 mph - N/A   Clear
2:35 AM 46.4 °F 44.3 °F 33.8 °F 62% 30.22 in 10.0 mi SSW 4.6 mph - N/A   Clear
2:55 AM 46.4 °F 43.5 °F 35.6 °F 66% 30.22 in 10.0 mi SSW 5.8 mph - N/A   Clear
3:15 AM 46.4 °F 44.3 °F 35.6 °F 66% 30.22 in 10.0 mi SSW 4.6 mph - N/A   Clear
3:35 AM 46.4 °F 44.3 °F 35.6 °F 66% 30.22 in 10.0 mi SSW 4.6 mph - N/A   Clear
3:55 AM 46.4 °F 44.3 °F 35.6 °F 66% 30.22 in 10.0 mi SSW 4.6 mph - N/A   Clear
4:15 AM 44.6 °F 41.4 °F 37.4 °F 76% 30.21 in 10.0 mi South 5.8 mph - N/A   Clear
4:35 AM 44.6 °F 42.2 °F 37.4 °F 76% 30.21 in 10.0 mi SSW 4.6 mph - N/A   Clear
4:55 AM 46.4 °F 45.2 °F 37.4 °F 71% 30.22 in 10.0 mi SSW 3.5 mph - N/A   Clear
5:15 AM 44.6 °F 43.1 °F 37.4 °F 76% 30.22 in 10.0 mi SSW 3.5 mph - N/A   Clear
5:35 AM 44.6 °F 43.1 °F 37.4 °F 76% 30.22 in 10.0 mi South 3.5 mph - N/A   Clear
5:55 AM 44.6 °F 42.2 °F 37.4 °F 76% 30.22 in 10.0 mi SSW 4.6 mph - N/A   Clear
6:15 AM 44.6 °F 41.4 °F 37.4 °F 76% 30.22 in 10.0 mi SSW 5.8 mph - N/A   Clear
6:35 AM 44.6 °F 43.1 °F 37.4 °F 76% 30.22 in 10.0 mi SSW 3.5 mph - N/A   Clear
6:55 AM 46.4 °F 44.3 °F 37.4 °F 71% 30.22 in 10.0 mi SW 4.6 mph - N/A   Clear
7:15 AM 46.4 °F 44.3 °F 39.2 °F 76% 30.22 in 10.0 mi SW 4.6 mph - N/A   Clear
7:35 AM 46.4 °F 43.5 °F 39.2 °F 76% 30.22 in 10.0 mi SW 5.8 mph - N/A   Clear
7:55 AM 48.2 °F - 41.0 °F 76% 30.22 in 10.0 mi SSW 5.8 mph - N/A   Clear
8:15 AM 50.0 °F - 41.0 °F 71% 30.23 in 10.0 mi SSW 5.8 mph - N/A   Clear
8:35 AM 51.8 °F - 42.8 °F 71% 30.23 in 10.0 mi SSW 9.2 mph - N/A   Clear
8:55 AM 53.6 °F - 42.8 °F 67% 30.23 in 10.0 mi SSW 8.1 mph - N/A   Clear
9:15 AM 55.4 °F - 44.6 °F 67% 30.24 in 10.0 mi SSW 5.8 mph - N/A   Clear
9:35 AM 57.2 °F - 44.6 °F 63% 30.24 in 10.0 mi SSW 6.9 mph - N/A   Clear
9:55 AM 60.8 °F - 42.8 °F 52% 30.23 in 10.0 mi SW 10.4 mph - N/A   Clear
10:15 AM 62.6 °F - 41.0 °F 45% 30.23 in 10.0 mi South 12.7 mph 17.3 mph N/A   Clear
10:35 AM 64.4 °F - 35.6 °F 34% 30.23 in 10.0 mi SSW 13.8 mph 21.9 mph N/A   Clear
10:55 AM 64.4 °F - 35.6 °F 34% 30.22 in 10.0 mi SSW 13.8 mph 23.0 mph N/A   Clear
11:15 AM 66.2 °F - 37.4 °F 35% 30.22 in 10.0 mi South 13.8 mph - N/A   Clear
11:35 AM 68.0 °F - 35.6 °F 30% 30.21 in 10.0 mi South 15.0 mph 20.7 mph N/A   Clear
11:55 AM 68.0 °F - 33.8 °F 28% 30.20 in 10.0 mi South 19.6 mph - N/A   Clear
12:15 PM 69.8 °F - 33.8 °F 27% 30.18 in 10.0 mi South 17.3 mph 21.9 mph N/A   Clear
12:35 PM 69.8 °F - 32.0 °F 25% 30.17 in 10.0 mi South 15.0 mph 19.6 mph N/A   Clear
12:55 PM 71.6 °F - 33.8 °F 25% 30.15 in 10.0 mi South 16.1 mph - N/A   Clear
1:15 PM 71.6 °F - 32.0 °F 23% 30.15 in 10.0 mi SSW 19.6 mph - N/A   Clear
1:35 PM 71.6 °F - 32.0 °F 23% 30.13 in 10.0 mi South 20.7 mph - N/A   Clear
1:55 PM 71.6 °F - 33.8 °F 25% 30.11 in 10.0 mi SSW 16.1 mph - N/A   Clear
2:15 PM 71.6 °F - 32.0 °F 23% 30.10 in 10.0 mi SSW 17.3 mph 23.0 mph N/A   Clear
2:35 PM 71.6 °F - 32.0 °F 23% 30.10 in 10.0 mi SSW 16.1 mph 24.2 mph N/A   Clear
2:55 PM 71.6 °F - 35.6 °F 27% 30.09 in 10.0 mi South 13.8 mph 25.3 mph N/A   Clear
3:15 PM 71.6 °F - 33.8 °F 25% 30.08 in 10.0 mi South 16.1 mph 25.3 mph N/A   Clear
3:35 PM 71.6 °F - 35.6 °F 27% 30.07 in 10.0 mi South 17.3 mph 24.2 mph N/A   Clear
3:55 PM 71.6 °F - 35.6 °F 27% 30.06 in 10.0 mi South 19.6 mph 26.5 mph N/A   Clear
4:15 PM 71.6 °F - 37.4 °F 29% 30.06 in 10.0 mi South 18.4 mph 28.8 mph N/A   Clear
4:35 PM 69.8 °F - 37.4 °F 31% 30.05 in 10.0 mi South 23.0 mph 26.5 mph N/A   Clear
4:55 PM 69.8 °F - 41.0 °F 35% 30.06 in 10.0 mi South 18.4 mph 23.0 mph N/A   Clear
5:15 PM 68.0 °F - 41.0 °F 37% 30.06 in 10.0 mi South 16.1 mph 27.6 mph N/A   Mostly Cloudy
5:35 PM 68.0 °F - 42.8 °F 40% 30.06 in 10.0 mi South 17.3 mph 23.0 mph N/A   Scattered Clouds
5:55 PM 66.2 °F - 42.8 °F 43% 30.06 in 10.0 mi South 16.1 mph 25.3 mph N/A   Scattered Clouds
6:15 PM 64.4 °F - 42.8 °F 45% 30.06 in 10.0 mi South 16.1 mph 24.2 mph N/A   Overcast
6:35 PM 64.4 °F - 42.8 °F 45% 30.06 in 10.0 mi South 15.0 mph 20.7 mph N/A   Overcast
6:55 PM 64.4 °F - 44.6 °F 49% 30.07 in 10.0 mi South 10.4 mph 18.4 mph N/A   Overcast
7:15 PM 64.4 °F - 44.6 °F 49% 30.07 in 10.0 mi SSE 12.7 mph 18.4 mph N/A   Overcast
7:35 PM 62.6 °F - 44.6 °F 52% 30.07 in 10.0 mi SSE 9.2 mph - N/A   Overcast
7:55 PM 62.6 °F - 44.6 °F 52% 30.07 in 10.0 mi SSE 9.2 mph 18.4 mph N/A   Overcast
8:15 PM 62.6 °F - 44.6 °F 52% 30.07 in 10.0 mi SSE 6.9 mph - N/A   Overcast
8:35 PM 62.6 °F - 46.4 °F 55% 30.07 in 10.0 mi SSE 10.4 mph 17.3 mph N/A   Mostly Cloudy
8:55 PM 62.6 °F - 46.4 °F 55% 30.06 in 10.0 mi SSE 11.5 mph - N/A   Mostly Cloudy
9:15 PM 62.6 °F - 48.2 °F 59% 30.06 in 10.0 mi SSE 13.8 mph 17.3 mph N/A   Overcast
9:35 PM 62.6 °F - 48.2 °F 59% 30.07 in 10.0 mi South 12.7 mph 18.4 mph N/A   Overcast
9:55 PM 62.6 °F - 48.2 °F 59% 30.07 in 10.0 mi SSE 11.5 mph 19.6 mph N/A   Overcast
10:15 PM 62.6 °F - 48.2 °F 59% 30.06 in 10.0 mi SSE 12.7 mph 19.6 mph N/A   Overcast
10:35 PM 62.6 °F - 48.2 °F 59% 30.06 in 10.0 mi SSE 13.8 mph 19.6 mph N/A   Overcast
10:55 PM 62.6 °F - 48.2 °F 59% 30.05 in 10.0 mi SSE 11.5 mph 17.3 mph N/A   Overcast
11:15 PM 62.6 °F - 50.0 °F 63% 30.04 in 10.0 mi SSE 8.1 mph 18.4 mph N/A   Overcast
11:35 PM 62.6 °F - 50.0 °F 63% 30.03 in 10.0 mi SSE 9.2 mph 17.3 mph N/A   Overcast
11:55 PM 62.6 °F - 50.0 °F 63% 30.02 in 10.0 mi SSE 10.4 mph - N/A   Overcast